Flag for U.S.A. Weather past 2 weeks in San Antonio, Texas, U.S.A.

Now
87 °F

Passing clouds.


Feels Like: 86 °F
Forecast: 69 / 87 °F
Wind: 10 mph from North

Location: San Antonio International Airport

Current Time: Apr 25, 2015 at 1:35:15 PM

Latest Report: Apr 25, 2015 at 12:51 PM


Visibility: 10 mi

Pressure: 29.75 "Hg

Humidity: 36%

Dew point: 57 °F

Location of San AntonioLocation

Historic Weather in San Antonio — Graph

°F

San Antonio temperature yesterday

Maximum temperature yesterday: 83 °F (at 5:51 PM)
Minimum temperature yesterday: 70 °F (at 6:02 AM)
Average temperature yesterday: 76 °F

Past Weeks' High & Low Weather Summary

 TemperatureHumidityPressure
High89 °F (Apr 19, 5:51 PM)97% (Apr 23, 8:51 AM)30.08 "Hg (Apr 23, 8:51 AM)
Low54 °F (Apr 21, 4:51 AM)24% (Apr 19, 6:51 PM)29.66 "Hg (Apr 24, 6:51 PM)
Average71 °F76%29.88 "Hg
* Reported Apr 10 11:51 AM — Apr 25 11:51 AM, San Antonio, Weather by CustomWeather, © 2015

Note: Actual official high and low records may vary slightly from our data, if they occured in-between our weather recording intervals... More about our weather records

Advertising

San Antonio weather history for previous 24 hours

 ConditionsComfort  
Time TempWeatherWind HumidityBarometerVisibility
11:51 AM
Sat, Apr 25
85 °FPassing clouds.5 mph37%29.76 "Hg10 mi
10:51 AM81 °FScattered clouds.7 mph72%29.76 "Hg10 mi
9:51 AM75 °FScattered clouds.No wind79%29.78 "Hg10 mi
8:51 AM71 °FScattered clouds.5 mph87%29.77 "Hg10 mi
7:51 AM67 °FPassing clouds.No wind90%29.78 "Hg10 mi
6:51 AM66 °FMostly cloudy.3 mph93%29.76 "Hg10 mi
5:51 AM66 °FThunderstorms. Passing clouds.No wind90%29.73 "Hg8 mi
4:57 AM66 °FStrong thunderstorms. Fog.14 mph90%29.82 "Hg1 mi
3:58 AM72 °FStrong thunderstorms. Fog.7 mph91%29.74 "Hg1 mi
2:51 AM72 °FPartly cloudy.No wind87%29.70 "Hg10 mi
1:51 AM73 °FMostly cloudy.3 mph84%29.71 "Hg10 mi
12:51 AM74 °FPartly cloudy.9 mph82%29.72 "Hg10 mi
11:51 PM
Fri, Apr 24
76 °FFog.6 mph91%29.72 "Hg6 mi
10:51 PM78 °FOvercast.5 mph87%29.72 "Hg7 mi
9:51 PM78 °FThunderstorms. Mostly cloudy.13 mph87%29.68 "Hg7 mi
8:59 PM79 °FThunderstorms. Cloudy.No wind82%29.77 "Hg6 mi
7:51 PM80 °FMore clouds than sun.7 mph79%29.67 "Hg7 mi
6:51 PM81 °FCloudy.8 mph74%29.66 "Hg7 mi
5:51 PM83 °FCloudy.12 mph72%29.67 "Hg7 mi
4:51 PM82 °FMore clouds than sun.13 mph72%29.68 "Hg9 mi
3:51 PM82 °FCloudy.13 mph74%29.70 "Hg10 mi
2:51 PM79 °FCloudy.14 mph82%29.73 "Hg8 mi
1:51 PM79 °FMostly cloudy.10 mph79%29.75 "Hg10 mi
Weather by CustomWeather, © 2015

See weather overviewHow to use our weather pages